Location: Casteau
(50.5142°N, 4.0161°E)
Time: 06:15:46
(UTC+00:00)

Vanguard 1 Rocket - Pass Details

Date: 05 August 2021
Orbit: 650 x 4226 km, 34.3° (Epoch: 21 September)

Event Time Altitude Azimuth Distance (km) Brightness Sun altitude
Rises 11:45:05 0° 259° (W) 7,641 12.2 56.3°
Reaches altitude 10° 11:51:29 10° 253° (WSW) 6,084 11.9 56.3°
Maximum altitude 12:05:42 35° 197° (SSW) 2,965 11.6 56.2°
Drops below altitude 10° 12:13:50 10° 135° (SE) 3,474 10.8 56.0°
Sets 12:16:25 0° 125° (SE) 4,114 10.9 55.9°
